Content
SEND FEEDBACK

Daily
Averages
Monthly
Summary
Spain

MÁLAGA, SPAIN


Home > Europe > Spain
Elevation: 23 feet     Latitude: 36 40N     Longitude: 004 29W

WEATHER
 
SELECT A DAY
Number of Records: 328,241;   Date Range: 7/1/96 - 11/26/14
 
SHARE

PRINT THIS DATA

[ ← Previous Day ]
WEATHER ALMANAC - APRIL 20, 2013
[ Next Day → ]
[ °C ]   °F
Weather ElementAverageHighLow
Temperature63 °F66.2 °F (11:00 am)60.8 °F (12:30 am)
Dewpoint56.9 °F60 °F (2:00 am)55 °F (8:00 pm)
Humidity80.2 %94 % (12:30 am)64 % (2:00 pm)
Barometer30.15 in30.19 in (2:00 pm)30.09 in (6:30 pm)
Wind Speed5.7 mph11.5 mph (3:00 pm)
Weather ElementAverage
Visibility5.6 mi
Wind DirectionESE (118 °)

Weather ElementTotal
Precipitation---
Heating Degree Days1.5 (Base 65)
Growing Degree Days13.5 (Base 50)
Averaged from 51 records on April 20, 2013
WEATHER CONDITIONS BREAKOUT
WIND DIRECTION BREAKOUT
WEATHER BY HOUR - APRIL 20, 2013
[ °C ]   °F
Local TimeTemperatureDewpointHumidityBarometerVisibilityWind DirectionWind SpeedGust SpeedPrecipitationEventsConditions
12:30 AM60.8 °F59.0 °F94 %30.12 in1.9 miESE (120°)4.6 mphScattered Clouds
1:00 AM60.8 °F59.0 °F94 %30.15 in1.2 miSSE (160°)3.5 mphScattered Clouds
1:30 AM60.8 °F59.0 °F94 %30.15 in1.2 miSouth (170°)3.5 mphScattered Clouds
2:00 AM62.0 °F60.0 °F90 %30.17 in2.0 miSouth (170°)2.3 mphMist
2:00 AM60.8 °F59.0 °F94 %30.15 in2.5 miVariable2.3 mphScattered Clouds
2:30 AM60.8 °F59.0 °F94 %30.15 in2.5 miVariable1.2 mphScattered Clouds
3:00 AM60.8 °F59.0 °F94 %30.15 in3.1 miSSE (160°)3.5 mphScattered Clouds
3:30 AM60.8 °F59.0 °F94 %30.15 in3.7 miSSE (150°)3.5 mphScattered Clouds
4:00 AM60.8 °F57.2 °F88 %30.15 in5.0 miSSE (150°)5.8 mphScattered Clouds
4:30 AM62.6 °F57.2 °F82 %30.15 in5.0 miSSE (160°)3.5 mphScattered Clouds
5:00 AM62.6 °F57.2 °F82 %30.15 in6.2 miSSE (160°)5.8 mphScattered Clouds
5:30 AM62.6 °F57.2 °F82 %30.15 in6.2 miSSE (160°)5.8 mphScattered Clouds
6:00 AM62.6 °F57.2 °F82 %30.15 in6.2 miSSE (150°)5.8 mphScattered Clouds
6:30 AM60.8 °F57.2 °F88 %30.15 in6.2 miSSE (160°)5.8 mphMostly Cloudy
7:00 AM60.8 °F57.2 °F88 %30.15 in6.2 miSSE (160°)3.5 mphMostly Cloudy
7:30 AM60.8 °F57.2 °F88 %30.15 in6.2 miSouth (170°)3.5 mphMostly Cloudy
8:00 AM62.0 °F58.0 °F81 %30.17 in9.0 miSSE (160°)2.3 mphMostly Cloudy
8:00 AM60.8 °F57.2 °F88 %30.15 in6.2 miVariable2.3 mphMostly Cloudy
8:30 AM60.8 °F57.2 °F88 %30.15 in6.2 miVariable2.3 mphScattered Clouds
9:00 AM62.6 °F57.2 °F82 %30.18 in6.2 miSSE (150°)3.5 mphScattered Clouds
9:30 AM62.6 °F57.2 °F82 %30.18 in6.2 miSSE (150°)3.5 mphScattered Clouds
10:00 AM64.4 °F55.4 °F73 %30.18 in6.2 miSE (130°)4.6 mphPartly Cloudy
10:30 AM64.4 °F55.4 °F73 %30.18 in6.2 miSE (130°)6.9 mphPartly Cloudy
11:00 AM66.2 °F55.4 °F68 %30.18 in6.2 miSE (130°)6.9 mphPartly Cloudy
11:30 AM66.2 °F55.4 °F68 %30.18 in6.2 miEast (100°)6.9 mphScattered Clouds
12:00 PM66.2 °F55.4 °F68 %30.18 in6.2 miVariable5.8 mphScattered Clouds
12:30 PM64.4 °F55.4 °F73 %30.18 in6.2 miSE (140°)6.9 mphScattered Clouds
1:00 PM64.4 °F55.4 °F73 %30.18 in6.2 miSSE (150°)8.1 mphScattered Clouds
1:30 PM64.4 °F57.2 °F77 %30.18 in6.2 miSE (140°)8.1 mphScattered Clouds
2:00 PM65.0 °F56.0 °F64 %30.19 in7.0 miESE (120°)9.2 mphMostly Cloudy
2:00 PM66.2 °F57.2 °F73 %30.18 in6.2 miESE (120°)9.2 mphScattered Clouds
2:30 PM66.2 °F57.2 °F73 %30.18 in6.2 miESE (120°)9.2 mphScattered Clouds
3:00 PM66.2 °F57.2 °F73 %30.15 in6.2 miESE (120°)11.5 mphScattered Clouds
3:30 PM66.2 °F57.2 °F73 %30.15 in6.2 miESE (120°)10.4 mphScattered Clouds
4:00 PM66.2 °F57.2 °F73 %30.15 in6.2 miESE (120°)10.4 mphScattered Clouds
4:30 PM66.2 °F57.2 °F73 %30.15 in6.2 miESE (110°)9.2 mphScattered Clouds
5:00 PM64.4 °F57.2 °F77 %30.12 in6.2 miESE (110°)8.1 mphScattered Clouds
5:30 PM64.4 °F57.2 °F77 %30.12 in6.2 miEast (90°)9.2 mphScattered Clouds
6:00 PM64.4 °F55.4 °F73 %30.12 in6.2 miESE (110°)5.8 mphScattered Clouds
6:30 PM64.4 °F55.4 °F73 %30.09 in6.2 miEast (100°)8.1 mphScattered Clouds
7:00 PM64.4 °F55.4 °F73 %30.09 in6.2 miESE (120°)6.9 mphPartly Cloudy
7:30 PM64.4 °F55.4 °F73 %30.09 in6.2 miESE (120°)6.9 mphPartly Cloudy
8:00 PM64.0 °F55.0 °F64 %30.11 in6.0 miESE (110°)6.9 mphScattered Clouds
8:00 PM62.6 °F55.4 °F77 %30.09 in6.2 miESE (110°)6.9 mphPartly Cloudy
8:30 PM62.6 °F55.4 °F77 %30.09 in6.2 miESE (120°)5.8 mphPartly Cloudy
9:00 PM60.8 °F55.4 °F82 %30.09 in6.2 miESE (120°)5.8 mphPartly Cloudy
9:30 PM60.8 °F55.4 °F82 %30.12 in6.2 miSE (130°)6.9 mphScattered Clouds
10:00 PM60.8 °F55.4 °F82 %30.12 in6.2 miSE (140°)3.5 mphScattered Clouds
10:30 PM60.8 °F57.2 °F88 %30.12 in6.2 miVariable1.2 mphScattered Clouds
11:00 PM60.8 °F57.2 °F88 %30.15 in6.2 miESE (120°)4.6 mphScattered Clouds
11:30 PM60.8 °F55.4 °F82 %30.15 in6.2 miESE (110°)4.6 mphScattered Clouds
Hourly data recorded from LEMG, located miles away from Málaga, Spain







STORIES FROM OUR PARTNERS